Location: Chavenne
(46.6022°N, 3.2951°E)
Time: 21:01:18
(UTC+00:00)

Cosmos 1703 - Pass Details

Date: 09 April 2020
Orbit: 524 x 540 km, 82.5° (Epoch: 22 May)

Event Time Altitude Azimuth Distance (km) Brightness Sun altitude
Rises 19:00:40 0° 353° (N) 2,705 7.2 -6.4°
Reaches altitude 10° 19:02:51 10° 357° (N) 1,810 6.3 -6.7°
Maximum altitude 19:06:48 63° 79° (ENE) 609 3.3 -7.4°
Drops below altitude 10° 19:10:44 10° 161° (SSE) 1,797 5.6 -8.0°
Sets 19:12:53 0° 165° (SSE) 2,684 6.5 -8.3°
